Hourly Weather Roundup
Issued by NWS Central Illinois

Home | Current Version | Previous Version | Text Only | Print | Product List | Glossary On
Versions: 1 2 3 4 5 6 7 8 9 10 11 12 13 14 15 16 17 18 19 20 21 22 23 24 25 26 27 28 29 30 31 32 33 34 35 36 37 38 39 40 41 42 43 44 45 46 47 48 49 50
000
NZUS43 KILX 242010
HWRILX

AREA WEATHER ROUNDUP
NATIONAL WEATHER SERVICE, LINCOLN IL
300 PM CDT WED AUG 24 2016


CITY           SKY/WX    TMP DP  RH WIND       PRES   REMARKS
BLOOMINGTON    MOSUNNY   83  69  62 W12G23    29.99F HX  86
CHAMPAIGN      CLOUDY    86  74  67 SW18G28   29.99F HX  94
DANVILLE       MOSUNNY   86  76  74 SW14G24   29.96F HX  96
DECATUR        CLOUDY    88  73  61 SW16G24   30.00S HX  95
EFFINGHAM      PTSUNNY   89  77  67 SW14G21   30.04F HX 101
FLORA          MOSUNNY   89  78  68 SW10      30.04F HX 103
GALESBURG      MOSUNNY   85  70  61 SW10      29.97F HX  90
JACKSONVILLE   MOSUNNY   85  76  74 SW13      30.00F HX  95
LACON          MOSUNNY   84  68  58 W12       29.95S HX  87
LAWRENCEVILLE  MOSUNNY   90  76  63 SW15G25   30.04F HX 101
LITCHFIELD     CLOUDY    86  72  64 SW7       30.02F HX  92
$$


CITY           SKY/WX    TMP DP  RH WIND       PRES   REMARKS
LINCOLN        MOSUNNY   89  73  60 W8        29.98F HX  96
MACOMB         MOSUNNY   83  71  67 W8        30.00F HX  88
MATTOON        PTSUNNY   85  73  67 SW10G16   30.02F HX  91
MT CARMEL AP   MOSUNNY   88  75  65 SW16      30.04F HX  98
OLNEY-NOBLE AP MOSUNNY   88  77  70 SW8       30.04F HX 100
PARIS          PTSUNNY   86  77  75 SW9       30.02F HX  96
PEORIA         MOSUNNY   86  70  58 W14       29.97F HX  90
PONTIAC        MOSUNNY   84  72  66 W14G23    29.97R HX  90
RANTOUL        CLOUDY    86  78  75 W17G25    29.97F HX  98
ROBINSON       PTSUNNY   84  76  77 SW10      30.04F HX  93
SPRINGFIELD    CLOUDY    89  75  63 W9G18     29.99F HX  99
TAYLORVILLE    MOSUNNY   86  75  70 W12G20    30.01F HX  95
$$

...REGIONAL REPORTS...


CITY           SKY/WX    TMP DP  RH WIND       PRES   REMARKS
CHICAGO O`HARE CLOUDY    80  72  76 W8        29.91F HX  84
KANKAKEE       MOSUNNY   85  71  60 SW18G25   29.95S HX  90
MOLINE         SUNNY     86  71  60 W9        29.95S HX  91
MOUNT STERLING MOSUNNY   85  75  70 SW8       30.00S HX  94
MOUNT VERNON   PTSUNNY   90  75  62 S16       30.05F HX 100
PITTSFIELD     CLOUDY    87  76  67 SW6       30.02F HX  97
QUINCY         CLOUDY    87  75  67 SW9       30.00S HX  96
ROCKFORD       MOSUNNY   82  72  71 W10       29.93F HX  87
$$


CITY           SKY/WX    TMP DP  RH WIND       PRES   REMARKS
BURLINGTON     MOSUNNY   84  72  67 W7        29.97F HX  89
CEDAR RAPIDS   MOSUNNY   84  73  69 W14G23    29.94S HX  90
DES MOINES     CLOUDY    84  71  65 W8        29.96F HX  89
KIRKSVILLE     CLOUDY    83  73  72 VRB6      30.01F HX  89
OTTUMWA        PTSUNNY   83  69  62 SW13      29.98R HX  86
ST LOUIS       PTSUNNY   94  72  48 W9G21     30.02F HX 102
$$


CITY           SKY/WX    TMP DP  RH WIND       PRES   REMARKS
TERRE HAUTE    CLOUDY    87  75  67 SW17      30.02F HX  96
EVANSVILLE     MOSUNNY   88  73  61 SW17G25   30.07F HX  95
INDIANAPOLIS   CLOUDY    84  72  67 S20G29    29.99F THUNDER HX  89
LAFAYETTE      CLOUDY    81  76  84 S12       29.97F HX  87
MADISON        PTSUNNY   81  71  71 VRB7      29.91R HX  85
MILWAUKEE      CLOUDY    83  70  64 W12       29.90F HX  87
$$






USA.gov is the U.S. government's official web portal to all federal, state and local government web resources and services.